Regional Weather Roundup
Issued by NWS

Home | Current Version | Previous Version | Graphics & Text | Print | Product List | Glossary On
Versions: 1 2 3 4 5 6 7 8 9 10 11 12 13 14 15 16 17 18 19 20 21 22 23 24 25 26 27 28 29 30 31 32 33 34 35 36 37 38 39 40 41 42 43 44 45 46 47 48 49 50
976
ASUS45 KBOU 252207
RWRCO

WEATHER ROUNDUP FOR COLORADO
NATIONAL WEATHER SERVICE DENVER/BOULDER CO
400 PM MDT MON SEP 25 2017

NOTE: "FAIR" INDICATES FEW OR NO CLOUDS BELOW 12000 FEET WITH NO
SIGNIFICANT WEATHER AND/OR OBSTRUCTIONS TO VISIBILITY.

COZ001>005-013-030-031-252300-
...NORTHWEST COLORADO...

CITY           SKY/WX    TMP DP  RH WIND       PRES   REMARKS
CRAIG          FAIR      53  24  32 W6        30.09S
HAYDEN         FAIR      52  26  36 NW10      30.10S
MEEKER         CLOUDY    57  27  31 N7        30.08R
RABBIT EARS PA CLOUDY    34  28  80 W7        30.17S WCI  28
STEAMBOAT SPGS FAIR      52  27  37 W6        30.08S
WALDEN         PTSUNNY   46  27  46 N9        30.11S
$$

COZ006>008-011-252300-
...WEST CENTRAL VALLEYS...

CITY           SKY/WX    TMP DP  RH WIND       PRES   REMARKS
GRAND JUNCTION FAIR      64  23  21 NW9       30.01F
MONTROSE       FAIR      60  24  25 NW9       30.05S
EAGLE          FAIR      61  15  16 W12       30.03R
RIFLE          FAIR      63  27  25 NW10G16   30.01F
DELTA          FAIR      67  26  21 SW7       30.01F
NUCLA          FAIR      63  18  17 CALM      30.07S
$$

COZ017>023-064>068-252300-
...SOUTHWEST COLORADO...

CITY           SKY/WX    TMP DP  RH WIND       PRES   REMARKS
DURANGO        FAIR      62  14  15 VRB6      30.02F
CORTEZ         FAIR      63  23  21 MISG      30.02F
PAGOSA SPRINGS FAIR      60  -5   7 SW9       30.05F
TELLURIDE      FAIR      51  20  29 W12G18    30.14R
WOLF CREEK PAS FAIR      37  12  35 S13G23    30.26S
$$

COZ009-010-012-014-032>034-037-058>063-252300-
...CENTRAL COLORADO...

CITY           SKY/WX    TMP DP  RH WIND       PRES   REMARKS
ASPEN          FAIR      57  21  24 NW16G22   30.04S
BUENA VISTA    FAIR      60  26  26 S18       30.00S
COPPER MTN     CLOUDY    41  12  30 NW14G22   30.19S
BERTHOUD PASS  HAZE      27  18  69 CALM      30.22S VSB<1/4
COTTONWOOD PAS FAIR      57   3  11 SW9       30.10R
GUNNISON       FAIR      59  15  18 W13       30.02S
KREMMLING      PTSUNNY   64  12  13 N7G17     30.04S
LEADVILLE      PTSUNNY   49   4  16 W13       30.08R
SALIDA         FAIR      56  37  48 SE21G32   30.08S
SUNLIGHT       FAIR      37  23  56 W12G18    30.21S
WILKERSON PASS PTSUNNY   37  30  75 SE7       30.21S
$$

COZ069>075-252300-
...SAN LUIS VALLEY/SANGRE DE CRISTO MOUNTAINS...

CITY           SKY/WX    TMP DP  RH WIND       PRES   REMARKS
ALAMOSA        FAIR      66   7  10 SW10      29.98S
DEL NORTE      FAIR      63   7  11 SW15G23   30.02S
LA VETA PASS   DRZL/FOG  39  37  93 NE12G17   30.26S VSB 1/4
SAGUACHE       FAIR      63  14  15 SE9       30.00S
$$

COZ035-036-038>040-252300-
...NORTHERN COLORADO FRONT RANGE...

CITY           SKY/WX    TMP DP  RH WIND       PRES   REMARKS
DENVER INTL AP PTSUNNY   53  39  59 NE7       30.07S
DMNS CITY PARK   N/A     52  41  66 NE7G13    30.06S
AURORA         CLOUDY    53  42  67 N9        30.08S
FRONT RANGE AP PTSUNNY   54  41  62 NE7G18    30.08S
ERIE MUNI ARPT CLOUDY    53  42  67 NW5       30.12S
BOULDER MUN AP DRIZZLE   50  43  76 CALM      30.07S
CENTENNIAL     PTSUNNY   51  41  68 N6        30.08R
BROOMFIELD     CLOUDY    52  41  66 SE3       30.08S
FORT COLLINS   PTSUNNY   55  41  59 S9        30.07S
LONGMONT       PTSUNNY   56  41  57 CALM      30.08S
$$

COZ041-046-047-076>085-087-088-252300-
...PIKES PEAK/PALMER DIVIDE AND SOUTHERN FOOTHILLS...

CITY           SKY/WX    TMP DP  RH WIND       PRES   REMARKS
COLO. SPRINGS  FAIR      55  41  59 SW6       30.06F
A. F. ACADEMY  PTSUNNY   53  40  59 SW5       30.06F
SCHRIEVER AFB  FAIR      54  38  56 SE7       30.06F
CHEYENNE MTN   FAIR      47  39  73 S8        30.02F
ELLICOTT       PTSUNNY  N/A N/A N/A E8        30.05F
FALCON         PTSUNNY   55  37  52 SE7       30.09S
FORT CARSON    CLOUDY    54  41  60 SE3       30.04F
LIMON            N/A    N/A N/A N/A MISG      30.06F
MONUMENT HILL  CLOUDY    46  37  71 NE8       30.10S
CANON CITY     NOT AVBL
WALSENBURG     NOT AVBL
TRINIDAD       CLOUDY    50  48  93 NE8       30.06S
$$

COZ042>045-048>051-090-091-252300-
...NORTHEAST COLORADO...

CITY           SKY/WX    TMP DP  RH WIND       PRES   REMARKS
GREELEY ARPT   PTSUNNY   58  42  55 S8        30.07S
AKRON          CLOUDY    51  41  68 NE13      30.06F
BURLINGTON     CLOUDY    49  47  93 N13       30.05S
WRAY           CLOUDY    52  45  76 N13       30.06S
YUMA           CLOUDY    48  43  81 N8        30.06F
STERLING       DRIZZLE   54  43  66 NE9       30.07F
HOLYOKE        CLOUDY    54  45  71 NE12      30.07F
FORT MORGAN    CLOUDY    54  40  60 NE9       30.08S
$$

COZ086-089-092>099-252300-
...SOUTHEAST COLORADO...

CITY           SKY/WX    TMP DP  RH WIND       PRES   REMARKS
PUEBLO         PTSUNNY   60  45  57 SE12G26   30.01F
LA JUNTA       CLOUDY    55  49  80 NE12      30.03S
LAMAR          CLOUDY    54  50  87 NE10      30.00S FOG
SPRINGFIELD      N/A     53  53 100 N14       29.99S
$$




USA.gov is the U.S. government's official web portal to all federal, state and local government web resources and services.